Time,TemperatureF,DewpointF,PressureIn,WindDirection,WindDirectionDegrees,WindSpeedMPH,WindSpeedGustMPH,Humidity,HourlyPrecipIn,Conditions,Clouds,dailyrainin,SoftwareType,DateUTC
2013-03-23 00:03:00,31.4,19.5,30.12,NE,41,0.0,0.0,61,0.00,OVC,OVC,0.00,WeatherDisplay:10.37,2013-03-23 05:03:00,
2013-03-23 00:08:00,31.4,19.5,30.12,NE,48,3.5,3.5,61,0.00,OVC,OVC,0.00,WeatherDisplay:10.37,2013-03-23 05:08:00,
2013-03-23 00:14:00,31.4,19.5,30.12,NNE,12,0.0,0.1,61,0.00,OVC,OVC,0.00,WeatherDisplay:10.37,2013-03-23 05:14:00,
2013-03-23 00:19:00,31.3,19.0,30.12,NNE,17,3.0,3.0,60,0.00,OVC,OVC,0.00,WeatherDisplay:10.37,2013-03-23 05:19:00,
2013-03-23 00:24:00,31.3,19.0,30.12,NNE,18,2.0,0.0,60,0.00,OVC,OVC,0.00,WeatherDisplay:10.37,2013-03-23 05:24:00,
2013-03-23 00:29:00,31.2,19.3,30.11,NE,55,2.3,0.0,61,0.00,OVC,OVC,0.00,WeatherDisplay:10.37,2013-03-23 05:29:00,
2013-03-23 00:34:00,31.2,19.3,30.11,ENE,58,1.2,0.0,61,0.00,OVC,OVC,0.00,WeatherDisplay:10.37,2013-03-23 05:34:00,
2013-03-23 00:39:00,31.1,19.2,30.11,ENE,59,1.2,1.2,61,0.00,OVC,OVC,0.00,WeatherDisplay:10.37,2013-03-23 05:39:00,
2013-03-23 00:44:00,31.0,19.1,30.11,ENE,78,3.5,3.5,61,0.00,OVC,OVC,0.00,WeatherDisplay:10.37,2013-03-23 05:44:00,
2013-03-23 00:50:00,31.0,19.1,30.11,North,5,2.3,2.3,61,0.00,OVC,OVC,0.00,WeatherDisplay:10.37,2013-03-23 05:50:00,
2013-03-23 00:55:00,31.0,19.1,30.11,NE,52,3.5,3.5,61,0.00,OVC,OVC,0.00,WeatherDisplay:10.37,2013-03-23 05:55:00,
2013-03-23 01:00:00,31.0,18.7,30.11,NE,51,3.5,3.5,60,0.00,OVC,OVC,0.00,WeatherDisplay:10.37,2013-03-23 06:00:00,
2013-03-23 01:05:00,31.0,18.7,30.10,NE,52,2.3,2.3,60,0.00,OVC,OVC,0.00,WeatherDisplay:10.37,2013-03-23 06:05:00,
2013-03-23 01:12:00,30.9,18.6,30.10,ENE,69,3.5,3.5,60,0.00,OVC,OVC,0.00,WeatherDisplay:10.37,2013-03-23 06:12:00,
2013-03-23 01:17:00,30.9,18.6,30.10,ENE,68,0.0,0.0,60,0.00,OVC,OVC,0.00,WeatherDisplay:10.37,2013-03-23 06:17:00,
2013-03-23 01:22:00,30.8,18.5,30.10,ENE,61,3.5,3.5,60,0.00,OVC,OVC,0.00,WeatherDisplay:10.37,2013-03-23 06:22:00,
2013-03-23 01:27:00,30.7,18.4,30.10,ENE,71,0.0,0.0,60,0.00,OVC,OVC,0.00,WeatherDisplay:10.37,2013-03-23 06:27:00,
2013-03-23 01:32:00,30.6,18.3,30.10,ENE,67,4.6,4.6,60,0.00,OVC,OVC,0.00,WeatherDisplay:10.37,2013-03-23 06:32:00,
2013-03-23 01:38:00,30.5,18.6,30.09,ENE,69,0.0,0.0,61,0.00,OVC,OVC,0.00,WeatherDisplay:10.37,2013-03-23 06:38:00,
2013-03-23 01:43:00,30.2,18.4,30.10,ENE,65,2.3,2.3,61,0.00,OVC,OVC,0.00,WeatherDisplay:10.37,2013-03-23 06:43:00,
2013-03-23 01:48:00,30.1,18.6,30.10,ENE,65,0.0,0.0,62,0.00,OVC,OVC,0.00,WeatherDisplay:10.37,2013-03-23 06:48:00,
2013-03-23 01:54:00,29.9,18.5,30.11,ENE,64,2.0,2.0,62,0.00,OVC,OVC,0.00,WeatherDisplay:10.37,2013-03-23 06:54:00,
2013-03-23 01:59:00,29.7,18.6,30.11,ENE,64,2.3,2.3,63,0.00,OVC,OVC,0.00,WeatherDisplay:10.37,2013-03-23 06:59:00,
2013-03-23 02:04:00,29.7,19.0,30.11,ENE,63,2.3,2.3,64,0.00,OVC,OVC,0.00,WeatherDisplay:10.37,2013-03-23 07:04:00,
2013-03-23 02:09:00,29.7,19.0,30.12,ENE,63,0.0,0.0,64,0.00,OVC,OVC,0.00,WeatherDisplay:10.37,2013-03-23 07:09:00,
2013-03-23 02:14:00,29.7,19.0,30.12,ENE,63,1.2,0.0,64,0.00,OVC,OVC,0.00,WeatherDisplay:10.37,2013-03-23 07:14:00,
2013-03-23 02:20:00,29.7,19.0,30.12,ENE,62,3.5,3.5,64,0.00,OVC,OVC,0.00,WeatherDisplay:10.37,2013-03-23 07:20:00,
2013-03-23 02:25:00,29.8,19.1,30.11,ENE,62,2.3,2.3,64,0.00,OVC,OVC,0.00,WeatherDisplay:10.37,2013-03-23 07:25:00,
2013-03-23 02:30:00,29.8,19.5,30.12,ENE,62,0.0,0.0,65,0.00,OVC,OVC,0.00,WeatherDisplay:10.37,2013-03-23 07:30:00,
2013-03-23 02:35:00,29.9,19.6,30.11,ENE,62,0.0,0.0,65,0.00,OVC,OVC,0.00,WeatherDisplay:10.37,2013-03-23 07:35:00,
2013-03-23 02:41:00,29.8,19.5,30.12,ENE,62,0.0,0.0,65,0.00,OVC,OVC,0.00,WeatherDisplay:10.37,2013-03-23 07:41:00,
2013-03-23 02:46:00,29.7,19.4,30.11,ENE,62,1.2,1.2,65,0.00,OVC,OVC,0.00,WeatherDisplay:10.37,2013-03-23 07:46:00,
2013-03-23 02:51:00,29.7,19.4,30.12,ENE,62,0.0,0.0,65,0.00,OVC,OVC,0.00,WeatherDisplay:10.37,2013-03-23 07:51:00,
2013-03-23 02:57:00,29.6,19.6,30.12,ENE,62,0.0,0.0,66,0.00,OVC,OVC,0.00,WeatherDisplay:10.37,2013-03-23 07:57:00,
2013-03-23 03:02:00,29.6,19.6,30.13,ENE,62,0.0,0.0,66,0.00,OVC,OVC,0.00,WeatherDisplay:10.37,2013-03-23 08:02:00,
2013-03-23 03:07:00,29.6,19.6,30.13,ENE,62,1.2,0.0,66,0.00,OVC,OVC,0.00,WeatherDisplay:10.37,2013-03-23 08:07:00,
2013-03-23 03:12:00,29.6,19.6,30.14,ENE,62,1.2,0.0,66,0.00,OVC,OVC,0.00,WeatherDisplay:10.37,2013-03-23 08:12:00,
2013-03-23 03:17:00,29.6,19.6,30.14,ENE,62,0.0,0.0,66,0.00,OVC,OVC,0.00,WeatherDisplay:10.37,2013-03-23 08:17:00,
2013-03-23 03:23:00,29.7,19.7,30.15,ENE,62,1.2,1.2,66,0.00,OVC,OVC,0.00,WeatherDisplay:10.37,2013-03-23 08:23:00,
2013-03-23 03:28:00,29.7,19.7,30.15,ENE,62,0.0,0.0,66,0.00,OVC,OVC,0.00,WeatherDisplay:10.37,2013-03-23 08:28:00,
2013-03-23 03:33:00,29.7,19.7,30.15,ENE,62,0.0,0.0,66,0.00,OVC,OVC,0.00,WeatherDisplay:10.37,2013-03-23 08:33:00,
2013-03-23 03:38:00,29.7,19.7,30.15,ENE,62,0.0,0.0,66,0.00,OVC,OVC,0.00,WeatherDisplay:10.37,2013-03-23 08:38:00,
2013-03-23 03:43:00,29.7,19.7,30.15,ENE,62,0.0,0.1,66,0.00,OVC,OVC,0.00,WeatherDisplay:10.37,2013-03-23 08:43:00,
2013-03-23 03:49:00,29.8,19.8,30.14,ENE,62,0.0,0.0,66,0.00,OVC,OVC,0.00,WeatherDisplay:10.37,2013-03-23 08:49:00,
2013-03-23 03:54:00,29.8,19.8,30.14,NE,45,2.3,2.3,66,0.00,OVC,OVC,0.00,WeatherDisplay:10.37,2013-03-23 08:54:00,
2013-03-23 03:59:00,29.8,19.8,30.13,NNE,24,3.5,3.5,66,0.00,OVC,OVC,0.00,WeatherDisplay:10.37,2013-03-23 08:59:00,
2013-03-23 04:04:00,29.8,19.8,30.13,NNE,16,3.5,3.5,66,0.00,OVC,OVC,0.00,WeatherDisplay:10.37,2013-03-23 09:04:00,
2013-03-23 04:09:00,29.7,19.7,30.13,NNE,19,2.3,2.3,66,0.00,OVC,OVC,0.00,WeatherDisplay:10.37,2013-03-23 09:09:00,
2013-03-23 04:14:00,29.7,19.7,30.13,NNE,16,2.3,2.3,66,0.00,OVC,OVC,0.00,WeatherDisplay:10.37,2013-03-23 09:14:00,
2013-03-23 04:20:00,29.7,19.7,30.13,NNE,15,3.5,3.5,66,0.00,OVC,OVC,0.00,WeatherDisplay:10.37,2013-03-23 09:20:00,
2013-03-23 04:25:00,29.7,19.7,30.13,NNE,18,3.5,3.5,66,0.00,OVC,OVC,0.00,WeatherDisplay:10.37,2013-03-23 09:25:00,
2013-03-23 04:30:00,29.7,19.7,30.12,NNE,18,3.5,3.5,66,0.00,OVC,OVC,0.00,WeatherDisplay:10.37,2013-03-23 09:30:00,
2013-03-23 04:35:00,29.6,20.0,30.12,NNE,19,3.5,3.5,67,0.00,OVC,OVC,0.00,WeatherDisplay:10.37,2013-03-23 09:35:00,
2013-03-23 04:40:00,29.6,20.0,30.11,NNE,21,2.3,2.3,67,0.00,OVC,OVC,0.00,WeatherDisplay:10.37,2013-03-23 09:40:00,
2013-03-23 04:45:00,29.6,20.0,30.10,NNE,21,2.3,2.3,67,0.00,OVC,OVC,0.00,WeatherDisplay:10.37,2013-03-23 09:45:00,
2013-03-23 04:51:00,29.5,19.9,30.10,NE,36,0.0,0.0,67,0.00,OVC,OVC,0.00,WeatherDisplay:10.37,2013-03-23 09:51:00,
2013-03-23 04:56:00,29.4,20.1,30.11,NE,37,2.3,2.3,68,0.00,OVC,OVC,0.00,WeatherDisplay:10.37,2013-03-23 09:56:00,
2013-03-23 05:01:00,29.4,20.1,30.11,NE,38,1.2,0.0,68,0.00,OVC,OVC,0.00,WeatherDisplay:10.37,2013-03-23 10:01:00,
2013-03-23 05:06:00,29.4,20.1,30.11,NE,38,0.0,0.0,68,0.00,OVC,OVC,0.00,WeatherDisplay:10.37,2013-03-23 10:06:00,
2013-03-23 05:11:00,29.3,20.0,30.11,NE,38,1.2,1.2,68,0.00,OVC,OVC,0.00,WeatherDisplay:10.37,2013-03-23 10:11:00,
2013-03-23 05:16:00,29.3,20.0,30.11,NE,38,0.0,0.0,68,0.00,OVC,OVC,0.00,WeatherDisplay:10.37,2013-03-23 10:16:00,
2013-03-23 05:22:00,29.2,19.9,30.11,NE,38,0.0,0.0,68,0.00,OVC,OVC,0.00,WeatherDisplay:10.37,2013-03-23 10:22:00,
2013-03-23 05:27:00,29.2,19.9,30.12,NE,38,0.0,0.0,68,0.00,OVC,OVC,0.00,WeatherDisplay:10.37,2013-03-23 10:27:00,
2013-03-23 05:32:00,29.2,19.9,30.12,NE,38,2.3,2.3,68,0.00,OVC,OVC,0.00,WeatherDisplay:10.37,2013-03-23 10:32:00,
2013-03-23 05:37:00,29.1,19.8,30.12,NE,38,0.0,0.0,68,0.00,OVC,OVC,0.00,WeatherDisplay:10.37,2013-03-23 10:37:00,
2013-03-23 05:42:00,29.0,19.8,30.12,NE,38,1.2,0.0,68,0.00,OVC,OVC,0.00,WeatherDisplay:10.37,2013-03-23 10:42:00,
2013-03-23 05:48:00,29.0,19.8,30.12,NE,38,0.0,0.0,68,0.00,OVC,OVC,0.00,WeatherDisplay:10.37,2013-03-23 10:48:00,
2013-03-23 05:53:00,28.9,19.7,30.13,NE,38,0.0,0.0,68,0.00,OVC,OVC,0.00,WeatherDisplay:10.37,2013-03-23 10:53:00,
2013-03-23 05:58:00,28.8,19.9,30.13,NE,38,0.0,0.0,69,0.00,OVC,OVC,0.00,WeatherDisplay:10.37,2013-03-23 10:58:00,
2013-03-23 06:03:00,28.7,19.8,30.14,NE,38,0.0,0.0,69,0.00,OVC,OVC,0.00,WeatherDisplay:10.37,2013-03-23 11:03:00,
2013-03-23 06:08:00,28.7,19.8,30.14,NE,38,0.0,0.0,69,0.00,OVC,OVC,0.00,WeatherDisplay:10.37,2013-03-23 11:08:00,
2013-03-23 06:13:00,28.6,20.1,30.14,NE,38,0.0,0.0,70,0.00,OVC,OVC,0.00,WeatherDisplay:10.37,2013-03-23 11:13:00,
2013-03-23 06:19:00,28.5,20.0,30.14,NE,38,0.0,0.0,70,0.00,OVC,OVC,0.00,WeatherDisplay:10.37,2013-03-23 11:19:00,
2013-03-23 06:24:00,28.3,19.8,30.14,NE,38,0.0,0.0,70,0.00,OVC,OVC,0.00,WeatherDisplay:10.37,2013-03-23 11:24:00,
2013-03-23 06:29:00,28.2,20.0,30.15,NE,38,0.0,0.0,71,0.00,OVC,OVC,0.00,WeatherDisplay:10.37,2013-03-23 11:29:00,
2013-03-23 06:34:00,28.1,19.9,30.14,NE,38,0.0,0.0,71,0.00,OVC,OVC,0.00,WeatherDisplay:10.37,2013-03-23 11:34:00,
2013-03-23 06:39:00,28.0,19.8,30.14,NE,38,2.3,2.3,71,0.00,OVC,OVC,0.00,WeatherDisplay:10.37,2013-03-23 11:39:00,
2013-03-23 06:44:00,27.9,19.7,30.14,NE,38,2.3,2.3,71,0.00,OVC,OVC,0.00,WeatherDisplay:10.37,2013-03-23 11:44:00,
2013-03-23 06:49:00,27.8,19.6,30.14,NE,38,2.3,2.3,71,0.00,OVC,OVC,0.00,WeatherDisplay:10.37,2013-03-23 11:49:00,
2013-03-23 06:54:00,27.8,19.6,30.14,NE,38,2.3,2.3,71,0.00,OVC,OVC,0.00,WeatherDisplay:10.37,2013-03-23 11:54:00,
2013-03-23 07:00:00,27.7,19.8,30.14,NE,38,0.0,0.0,72,0.00,OVC,OVC,0.00,WeatherDisplay:10.37,2013-03-23 12:00:00,
2013-03-23 07:05:00,27.6,19.8,30.14,NE,38,2.3,2.3,72,0.00,OVC,OVC,0.00,WeatherDisplay:10.37,2013-03-23 12:05:00,
2013-03-23 07:10:00,27.6,19.8,30.14,NE,38,2.3,2.3,72,0.00,OVC,OVC,0.00,WeatherDisplay:10.37,2013-03-23 12:10:00,
2013-03-23 07:15:00,27.6,19.8,30.14,NE,38,0.0,0.0,72,0.00,OVC,OVC,0.00,WeatherDisplay:10.37,2013-03-23 12:15:00,
2013-03-23 07:20:00,27.6,19.8,30.15,NE,37,1.2,1.2,72,0.00,OVC,OVC,0.00,WeatherDisplay:10.37,2013-03-23 12:20:00,
2013-03-23 07:26:00,27.5,20.0,30.15,NE,37,2.3,2.3,73,0.00,OVC,OVC,0.00,WeatherDisplay:10.37,2013-03-23 12:26:00,
2013-03-23 07:31:00,27.5,20.0,30.15,NE,36,3.5,3.5,73,0.00,OVC,OVC,0.00,WeatherDisplay:10.37,2013-03-23 12:31:00,
2013-03-23 07:36:00,27.5,20.0,30.15,NNE,19,3.5,3.5,73,0.00,OVC,OVC,0.00,WeatherDisplay:10.37,2013-03-23 12:36:00,
2013-03-23 07:41:00,27.5,20.3,30.15,NNE,19,2.3,2.3,74,0.00,OVC,OVC,0.00,WeatherDisplay:10.37,2013-03-23 12:41:00,
2013-03-23 07:46:00,27.5,20.0,30.15,NNE,19,0.0,0.0,73,0.00,OVC,OVC,0.00,WeatherDisplay:10.37,2013-03-23 12:46:00,
2013-03-23 07:51:00,27.5,20.3,30.15,NNE,24,3.5,3.5,74,0.00,OVC,OVC,0.00,WeatherDisplay:10.37,2013-03-23 12:51:00,
2013-03-23 07:56:00,27.6,20.4,30.15,North,5,3.5,3.5,74,0.00,CLR,CLR,0.00,WeatherDisplay:10.37,2013-03-23 12:56:00,
2013-03-23 08:01:00,27.6,20.4,30.15,North,5,1.2,0.0,74,0.00,CLR,CLR,0.00,WeatherDisplay:10.37,2013-03-23 13:01:00,
2013-03-23 08:06:00,27.7,20.5,30.16,NNE,24,2.3,2.3,74,0.00,CLR,CLR,0.00,WeatherDisplay:10.37,2013-03-23 13:06:00,
2013-03-23 08:12:00,27.9,20.7,30.16,NNE,24,3.5,3.5,74,0.00,CLR,CLR,0.00,WeatherDisplay:10.37,2013-03-23 13:12:00,
2013-03-23 08:17:00,28.0,20.5,30.17,NE,34,3.5,3.5,73,0.00,CLR,CLR,0.00,WeatherDisplay:10.37,2013-03-23 13:17:00,
2013-03-23 08:22:00,28.2,20.7,30.16,NNE,30,2.3,2.3,73,0.00,CLR,CLR,0.00,WeatherDisplay:10.37,2013-03-23 13:22:00,
2013-03-23 08:27:00,28.4,20.8,30.16,NNE,27,3.0,3.0,73,0.00,CLR,CLR,0.00,WeatherDisplay:10.37,2013-03-23 13:27:00,
2013-03-23 08:33:00,28.5,20.6,30.17,NE,34,4.0,4.0,72,0.00,CLR,CLR,0.00,WeatherDisplay:10.37,2013-03-23 13:33:00,
2013-03-23 08:38:00,28.7,20.8,30.17,NE,34,2.3,2.3,72,0.00,CLR,CLR,0.00,WeatherDisplay:10.37,2013-03-23 13:38:00,
2013-03-23 08:43:00,28.8,20.6,30.17,NNE,22,3.5,3.5,71,0.00,CLR,CLR,0.00,WeatherDisplay:10.37,2013-03-23 13:43:00,
2013-03-23 08:48:00,29.0,20.4,30.17,NNE,30,3.5,3.5,70,0.00,CLR,CLR,0.00,WeatherDisplay:10.37,2013-03-23 13:48:00,
2013-03-23 08:54:00,29.1,20.5,30.17,NNE,32,2.3,2.3,70,0.00,CLR,CLR,0.00,WeatherDisplay:10.37,2013-03-23 13:54:00,
2013-03-23 08:59:00,29.3,20.4,30.17,NNE,33,4.0,4.0,69,0.00,CLR,CLR,0.00,WeatherDisplay:10.37,2013-03-23 13:59:00,
2013-03-23 09:04:00,29.4,20.1,30.17,NE,34,0.0,0.0,68,0.00,CLR,CLR,0.00,WeatherDisplay:10.37,2013-03-23 14:04:00,
2013-03-23 09:10:00,29.6,20.0,30.17,NE,45,3.5,3.5,67,0.00,CLR,CLR,0.00,WeatherDisplay:10.37,2013-03-23 14:10:00,
2013-03-23 09:15:00,29.7,20.1,30.17,NNE,19,3.5,3.5,67,0.00,CLR,CLR,0.00,WeatherDisplay:10.37,2013-03-23 14:15:00,
2013-03-23 09:20:00,29.7,20.1,30.18,NNE,17,3.5,3.5,67,0.00,CLR,CLR,0.00,WeatherDisplay:10.37,2013-03-23 14:20:00,
2013-03-23 09:25:00,29.7,19.7,30.17,NE,38,0.0,0.0,66,0.00,CLR,CLR,0.00,WeatherDisplay:10.37,2013-03-23 14:25:00,
2013-03-23 09:31:00,29.9,19.9,30.17,NNE,30,3.0,3.0,66,0.00,CLR,CLR,0.00,WeatherDisplay:10.37,2013-03-23 14:31:00,
2013-03-23 09:36:00,29.9,19.6,30.17,NE,42,3.5,3.5,65,0.00,CLR,CLR,0.00,WeatherDisplay:10.37,2013-03-23 14:36:00,
2013-03-23 09:41:00,29.9,19.6,30.17,NNE,16,2.3,2.3,65,0.00,CLR,CLR,0.00,WeatherDisplay:10.37,2013-03-23 14:41:00,
2013-03-23 09:47:00,30.0,18.9,30.17,NE,36,3.5,3.5,63,0.00,CLR,CLR,0.00,WeatherDisplay:10.37,2013-03-23 14:47:00,
2013-03-23 09:52:00,29.9,18.8,30.17,North,5,7.0,7.0,63,0.00,CLR,CLR,0.00,WeatherDisplay:10.37,2013-03-23 14:52:00,
2013-03-23 09:57:00,29.9,18.5,30.17,NNE,13,5.8,5.8,62,0.00,OVC,OVC,0.00,WeatherDisplay:10.37,2013-03-23 14:57:00,
2013-03-23 10:02:00,29.9,18.8,30.17,North,360,3.5,3.5,63,0.00,OVC,OVC,0.00,WeatherDisplay:10.37,2013-03-23 15:02:00,
2013-03-23 10:07:00,30.1,18.6,30.17,NE,44,3.5,3.5,62,0.00,OVC,OVC,0.00,WeatherDisplay:10.37,2013-03-23 15:07:00,
2013-03-23 10:12:00,30.1,18.6,30.17,East,80,3.5,3.5,62,0.00,OVC,OVC,0.00,WeatherDisplay:10.37,2013-03-23 15:12:00,
2013-03-23 10:17:00,30.1,18.6,30.17,East,87,3.5,3.5,62,0.00,OVC,OVC,0.00,WeatherDisplay:10.37,2013-03-23 15:17:00,
2013-03-23 10:23:00,30.2,18.7,30.17,NNW,346,8.0,8.0,62,0.00,OVC,OVC,0.00,WeatherDisplay:10.37,2013-03-23 15:23:00,
2013-03-23 10:28:00,30.3,18.5,30.17,NNE,28,2.3,2.3,61,0.00,OVC,OVC,0.00,WeatherDisplay:10.37,2013-03-23 15:28:00,
2013-03-23 10:33:00,30.5,18.6,30.17,NNE,25,3.5,3.5,61,0.00,OVC,OVC,0.00,WeatherDisplay:10.37,2013-03-23 15:33:00,
2013-03-23 10:39:00,30.6,18.3,30.17,ENE,68,2.3,0.0,60,0.00,OVC,OVC,0.00,WeatherDisplay:10.37,2013-03-23 15:39:00,
2013-03-23 10:44:00,30.8,18.5,30.17,NNE,22,5.8,5.8,60,0.00,OVC,OVC,0.00,WeatherDisplay:10.37,2013-03-23 15:44:00,
2013-03-23 10:49:00,31.0,18.3,30.17,ENE,67,3.5,3.5,59,0.00,OVC,OVC,0.00,WeatherDisplay:10.37,2013-03-23 15:49:00,
2013-03-23 10:54:00,31.2,18.5,30.17,NNE,28,3.5,3.5,59,0.00,OVC,OVC,0.00,WeatherDisplay:10.37,2013-03-23 15:54:00,
2013-03-23 10:59:00,31.7,18.2,30.17,ENE,64,4.0,4.0,57,0.00,OVC,OVC,0.00,WeatherDisplay:10.37,2013-03-23 15:59:00,
2013-03-23 11:04:00,32.1,18.6,30.17,East,87,5.8,5.8,57,0.00,OVC,OVC,0.00,WeatherDisplay:10.37,2013-03-23 16:04:00,
2013-03-23 11:09:00,32.3,18.3,30.17,NE,56,3.5,3.5,56,0.00,OVC,OVC,0.00,WeatherDisplay:10.37,2013-03-23 16:09:00,
2013-03-23 11:14:00,32.6,18.2,30.18,NE,56,2.0,2.0,55,0.00,OVC,OVC,0.00,WeatherDisplay:10.37,2013-03-23 16:14:00,
2013-03-23 11:20:00,32.9,18.1,30.18,NNE,31,5.8,5.8,54,0.00,OVC,OVC,0.00,WeatherDisplay:10.37,2013-03-23 16:20:00,
2013-03-23 11:25:00,33.2,18.3,30.18,NNE,27,3.5,3.5,54,0.00,OVC,OVC,0.00,WeatherDisplay:10.37,2013-03-23 16:25:00,
2013-03-23 11:30:00,33.5,18.2,30.17,NNW,348,6.0,6.0,53,0.00,OVC,OVC,0.00,WeatherDisplay:10.37,2013-03-23 16:30:00,
2013-03-23 11:35:00,33.9,18.6,30.18,North,5,4.6,4.6,53,0.00,OVC,OVC,0.00,WeatherDisplay:10.37,2013-03-23 16:35:00,
2013-03-23 11:40:00,34.3,18.0,30.18,NNE,20,3.5,3.5,51,0.00,OVC,OVC,0.00,WeatherDisplay:10.37,2013-03-23 16:40:00,
2013-03-23 11:46:00,34.4,18.1,30.18,NNE,17,2.3,2.3,51,0.00,OVC,OVC,0.00,WeatherDisplay:10.37,2013-03-23 16:46:00,
2013-03-23 11:51:00,34.4,17.7,30.18,WNW,282,4.6,4.6,50,0.00,OVC,OVC,0.00,WeatherDisplay:10.37,2013-03-23 16:51:00,
2013-03-23 11:56:00,35.1,18.3,30.18,ENE,73,3.5,3.5,50,0.00,OVC,OVC,0.00,WeatherDisplay:10.37,2013-03-23 16:56:00,
2013-03-23 12:01:00,35.5,18.2,30.18,ENE,77,2.3,2.3,49,0.00,OVC,OVC,0.00,WeatherDisplay:10.37,2013-03-23 17:01:00,
2013-03-23 12:06:00,36.1,17.8,30.18,SE,130,3.5,3.5,47,0.00,OVC,OVC,0.00,WeatherDisplay:10.37,2013-03-23 17:06:00,
2013-03-23 12:12:00,36.7,17.8,30.18,North,349,5.0,5.0,46,0.00,OVC,OVC,0.00,WeatherDisplay:10.37,2013-03-23 17:12:00,
2013-03-23 12:30:00,35.9,17.1,30.18,NE,50,3.5,3.5,46,0.00,OVC,OVC,0.00,WeatherDisplay:10.37,2013-03-23 17:30:00,
2013-03-23 12:36:00,36.1,17.8,30.18,ENE,57,3.5,3.5,47,0.00,OVC,OVC,0.00,WeatherDisplay:10.37,2013-03-23 17:36:00,
2013-03-23 12:41:00,36.4,17.1,30.18,NE,35,6.9,6.9,45,0.00,OVC,OVC,0.00,WeatherDisplay:10.37,2013-03-23 17:41:00,
2013-03-23 12:47:00,36.7,16.3,30.18,NNW,348,5.8,5.8,43,0.00,OVC,OVC,0.00,WeatherDisplay:10.37,2013-03-23 17:47:00,
2013-03-23 12:52:00,36.8,16.9,30.17,NNW,348,2.0,2.0,44,0.00,OVC,OVC,0.00,WeatherDisplay:10.37,2013-03-23 17:52:00,
2013-03-23 12:58:00,37.0,17.1,30.17,East,86,3.5,3.5,44,0.00,OVC,OVC,0.00,WeatherDisplay:10.37,2013-03-23 17:58:00,
2013-03-23 13:03:00,37.1,16.6,30.16,NE,46,3.5,3.5,43,0.00,OVC,OVC,0.00,WeatherDisplay:10.37,2013-03-23 18:03:00,
2013-03-23 13:08:00,37.2,16.2,30.16,NE,46,4.6,4.6,42,0.00,OVC,OVC,0.00,WeatherDisplay:10.37,2013-03-23 18:08:00,
2013-03-23 13:13:00,37.2,16.2,30.16,ENE,66,4.6,4.6,42,0.00,OVC,OVC,0.00,WeatherDisplay:10.37,2013-03-23 18:13:00,
2013-03-23 13:18:00,37.0,16.0,30.15,NNE,14,2.3,2.3,42,0.00,OVC,OVC,0.00,WeatherDisplay:10.37,2013-03-23 18:18:00,
2013-03-23 13:23:00,37.3,15.7,30.16,NE,52,3.5,3.5,41,0.00,OVC,OVC,0.00,WeatherDisplay:10.37,2013-03-23 18:23:00,
2013-03-23 13:28:00,37.5,15.3,30.15,NNE,25,4.6,4.6,40,0.00,OVC,OVC,0.00,WeatherDisplay:10.37,2013-03-23 18:28:00,
2013-03-23 13:34:00,37.8,15.6,30.15,NW,310,3.5,3.5,40,0.00,OVC,OVC,0.00,WeatherDisplay:10.37,2013-03-23 18:34:00,
2013-03-23 13:39:00,37.5,14.2,30.14,NE,38,3.5,3.5,38,0.00,OVC,OVC,0.00,WeatherDisplay:10.37,2013-03-23 18:39:00,
2013-03-23 13:44:00,37.4,14.1,30.14,NE,45,9.2,9.2,38,0.00,OVC,OVC,0.00,WeatherDisplay:10.37,2013-03-23 18:44:00,
2013-03-23 13:49:00,37.1,13.8,30.13,ENE,75,5.8,5.8,38,0.00,OVC,OVC,0.00,WeatherDisplay:10.37,2013-03-23 18:49:00,
2013-03-23 13:54:00,37.1,14.4,30.13,ENE,59,4.0,4.0,39,0.00,OVC,OVC,0.00,WeatherDisplay:10.37,2013-03-23 18:54:00,
2013-03-23 13:59:00,37.7,14.9,30.13,NNE,33,3.5,3.5,39,0.00,OVC,OVC,0.00,WeatherDisplay:10.37,2013-03-23 18:59:00,
2013-03-23 14:05:00,38.3,14.9,30.13,NNE,21,3.5,3.5,38,0.00,OVC,OVC,0.00,WeatherDisplay:10.37,2013-03-23 19:05:00,
2013-03-23 14:10:00,38.4,14.4,30.12,NE,49,4.0,4.0,37,0.00,OVC,OVC,0.00,WeatherDisplay:10.37,2013-03-23 19:10:00,
2013-03-23 14:15:00,38.6,15.1,30.11,ENE,74,3.5,3.5,38,0.00,OVC,OVC,0.00,WeatherDisplay:10.37,2013-03-23 19:15:00,
2013-03-23 14:20:00,39.0,14.3,30.11,ENE,72,9.2,9.2,36,0.00,OVC,OVC,0.00,WeatherDisplay:10.37,2013-03-23 19:20:00,
2013-03-23 14:25:00,38.8,14.7,30.11,NE,50,6.9,6.9,37,0.00,OVC,OVC,0.00,WeatherDisplay:10.37,2013-03-23 19:25:00,
2013-03-23 14:31:00,38.7,14.0,30.11,NE,56,5.8,5.8,36,0.00,OVC,OVC,0.00,WeatherDisplay:10.37,2013-03-23 19:31:00,
2013-03-23 14:37:00,38.7,15.2,30.10,NNE,23,3.5,3.5,38,0.00,OVC,OVC,0.00,WeatherDisplay:10.37,2013-03-23 19:37:00,
2013-03-23 14:42:00,39.6,17.2,30.10,NE,42,3.5,3.5,40,0.00,OVC,OVC,0.00,WeatherDisplay:10.37,2013-03-23 19:42:00,
2013-03-23 14:47:00,40.7,15.8,30.10,East,79,5.8,5.8,36,0.00,OVC,OVC,0.00,WeatherDisplay:10.37,2013-03-23 19:47:00,
2013-03-23 14:52:00,39.5,14.7,30.10,NNE,33,4.0,4.0,36,0.00,OVC,OVC,0.00,WeatherDisplay:10.37,2013-03-23 19:52:00,
2013-03-23 14:57:00,39.1,15.0,30.10,NE,40,8.1,8.1,37,0.00,OVC,OVC,0.00,WeatherDisplay:10.37,2013-03-23 19:57:00,
2013-03-23 15:03:00,38.9,14.8,30.10,NE,43,2.3,2.3,37,0.00,OVC,OVC,0.00,WeatherDisplay:10.37,2013-03-23 20:03:00,
2013-03-23 15:08:00,39.1,15.6,30.09,NE,36,4.6,4.6,38,0.00,OVC,OVC,0.00,WeatherDisplay:10.37,2013-03-23 20:08:00,
2013-03-23 15:13:00,38.9,15.4,30.09,NNE,22,8.1,8.1,38,0.00,OVC,OVC,0.00,WeatherDisplay:10.37,2013-03-23 20:13:00,
2013-03-23 15:18:00,38.4,15.6,30.09,NE,39,10.4,10.4,39,0.00,OVC,OVC,0.00,WeatherDisplay:10.37,2013-03-23 20:18:00,
2013-03-23 15:23:00,38.2,16.0,30.09,NE,40,9.2,9.2,40,0.00,OVC,OVC,0.00,WeatherDisplay:10.37,2013-03-23 20:23:00,
2013-03-23 15:28:00,38.2,16.5,30.08,NE,40,10.4,10.4,41,0.00,OVC,OVC,0.00,WeatherDisplay:10.37,2013-03-23 20:28:00,
2013-03-23 15:33:00,38.2,16.5,30.08,NNE,17,3.5,3.5,41,0.00,OVC,OVC,0.00,WeatherDisplay:10.37,2013-03-23 20:33:00,
2013-03-23 15:38:00,38.2,16.5,30.08,NE,34,4.0,4.0,41,0.00,OVC,OVC,0.00,WeatherDisplay:10.37,2013-03-23 20:38:00,
2013-03-23 15:44:00,38.1,15.9,30.08,NE,43,3.5,3.5,40,0.00,OVC,OVC,0.00,WeatherDisplay:10.37,2013-03-23 20:44:00,
2013-03-23 15:49:00,38.0,15.8,30.08,NE,43,3.0,3.0,40,0.00,OVC,OVC,0.00,WeatherDisplay:10.37,2013-03-23 20:49:00,
2013-03-23 15:54:00,38.0,15.8,30.08,NNE,25,4.6,4.6,40,0.00,OVC,OVC,0.00,WeatherDisplay:10.37,2013-03-23 20:54:00,
2013-03-23 15:59:00,37.9,15.7,30.09,ENE,76,5.8,5.8,40,0.00,OVC,OVC,0.00,WeatherDisplay:10.37,2013-03-23 20:59:00,
2013-03-23 16:04:00,37.7,16.1,30.09,NE,37,4.6,4.6,41,0.00,OVC,OVC,0.00,WeatherDisplay:10.37,2013-03-23 21:04:00,
2013-03-23 16:09:00,37.8,16.2,30.08,NE,44,3.5,3.5,41,0.00,OVC,OVC,0.00,WeatherDisplay:10.37,2013-03-23 21:09:00,
2013-03-23 16:15:00,37.9,16.3,30.07,NE,46,3.5,3.5,41,0.00,OVC,OVC,0.00,WeatherDisplay:10.37,2013-03-23 21:15:00,
2013-03-23 16:20:00,37.9,16.3,30.07,NE,39,5.8,5.8,41,0.00,OVC,OVC,0.00,WeatherDisplay:10.37,2013-03-23 21:20:00,
2013-03-23 16:25:00,37.7,16.1,30.07,NE,39,3.5,3.5,41,0.00,OVC,OVC,0.00,WeatherDisplay:10.37,2013-03-23 21:25:00,
2013-03-23 16:30:00,37.6,16.0,30.07,ENE,67,3.5,3.5,41,0.00,OVC,OVC,0.00,WeatherDisplay:10.37,2013-03-23 21:30:00,
2013-03-23 16:35:00,37.6,17.1,30.07,NE,53,2.3,2.3,43,0.00,OVC,OVC,0.00,WeatherDisplay:10.37,2013-03-23 21:35:00,
2013-03-23 16:41:00,37.6,16.0,30.06,NE,34,9.2,9.2,41,0.00,OVC,OVC,0.00,WeatherDisplay:10.37,2013-03-23 21:41:00,
2013-03-23 16:47:00,37.5,15.9,30.06,NE,52,6.9,6.9,41,0.00,OVC,OVC,0.00,WeatherDisplay:10.37,2013-03-23 21:47:00,
2013-03-23 16:52:00,37.5,17.0,30.06,NE,46,1.2,1.2,43,0.00,OVC,OVC,0.00,WeatherDisplay:10.37,2013-03-23 21:52:00,
2013-03-23 16:57:00,37.6,16.5,30.07,ENE,71,5.8,5.8,42,0.00,OVC,OVC,0.00,WeatherDisplay:10.37,2013-03-23 21:57:00,
2013-03-23 17:02:00,37.7,17.2,30.07,NE,45,4.6,4.6,43,0.00,OVC,OVC,0.00,WeatherDisplay:10.37,2013-03-23 22:02:00,
2013-03-23 17:07:00,37.8,16.7,30.07,NNE,24,2.3,2.3,42,0.00,OVC,OVC,0.00,WeatherDisplay:10.37,2013-03-23 22:07:00,
2013-03-23 17:13:00,37.7,16.6,30.07,ENE,78,6.9,6.9,42,0.00,OVC,OVC,0.00,WeatherDisplay:10.37,2013-03-23 22:13:00,
2013-03-23 17:18:00,37.7,16.6,30.07,NNE,32,3.5,3.5,42,0.00,OVC,OVC,0.00,WeatherDisplay:10.37,2013-03-23 22:18:00,
2013-03-23 17:23:00,37.6,16.5,30.08,NNE,22,3.5,3.5,42,0.00,OVC,OVC,0.00,WeatherDisplay:10.37,2013-03-23 22:23:00,
2013-03-23 17:28:00,37.6,17.1,30.07,NNE,27,5.8,5.8,43,0.00,OVC,OVC,0.00,WeatherDisplay:10.37,2013-03-23 22:28:00,
2013-03-23 17:33:00,37.5,17.5,30.08,NNE,27,5.8,5.8,44,0.00,OVC,OVC,0.00,WeatherDisplay:10.37,2013-03-23 22:33:00,
2013-03-23 17:38:00,37.3,17.4,30.07,NE,48,6.9,6.9,44,0.00,OVC,OVC,0.00,WeatherDisplay:10.37,2013-03-23 22:38:00,
2013-03-23 17:44:00,37.2,17.8,30.08,NNE,32,5.8,5.8,45,0.00,OVC,OVC,0.00,WeatherDisplay:10.37,2013-03-23 22:44:00,
2013-03-23 17:49:00,37.0,17.6,30.08,NNE,28,6.9,6.9,45,0.00,OVC,OVC,0.00,WeatherDisplay:10.37,2013-03-23 22:49:00,
2013-03-23 17:54:00,36.8,17.4,30.08,NNE,24,11.5,11.5,45,0.00,OVC,OVC,0.00,WeatherDisplay:10.37,2013-03-23 22:54:00,
2013-03-23 17:59:00,36.6,17.7,30.08,NNE,21,6.9,6.9,46,0.00,OVC,OVC,0.00,WeatherDisplay:10.37,2013-03-23 22:59:00,
2013-03-23 18:04:00,36.5,18.2,30.08,ENE,69,9.2,9.2,47,0.00,OVC,OVC,0.00,WeatherDisplay:10.37,2013-03-23 23:04:00,
2013-03-23 18:09:00,36.4,18.1,30.09,NNE,27,4.6,4.6,47,0.00,OVC,OVC,0.00,WeatherDisplay:10.37,2013-03-23 23:09:00,
2013-03-23 18:15:00,36.4,18.1,30.09,NNE,22,3.5,3.5,47,0.00,OVC,OVC,0.00,WeatherDisplay:10.37,2013-03-23 23:15:00,
2013-03-23 18:20:00,36.4,18.1,30.09,NE,38,3.5,3.5,47,0.00,OVC,OVC,0.00,WeatherDisplay:10.37,2013-03-23 23:20:00,
2013-03-23 18:25:00,36.2,17.9,30.09,NE,39,3.5,3.5,47,0.00,OVC,OVC,0.00,WeatherDisplay:10.37,2013-03-23 23:25:00,
2013-03-23 18:30:00,36.2,17.9,30.09,NE,41,4.0,4.0,47,0.00,OVC,OVC,0.00,WeatherDisplay:10.37,2013-03-23 23:30:00,
2013-03-23 18:35:00,36.1,18.3,30.09,NNE,28,3.5,3.5,48,0.00,OVC,OVC,0.00,WeatherDisplay:10.37,2013-03-23 23:35:00,
2013-03-23 18:40:00,35.8,20.3,30.10,NE,47,3.5,3.5,53,0.00,OVC,OVC,0.00,WeatherDisplay:10.37,2013-03-23 23:40:00,
2013-03-23 18:45:00,35.2,21.1,30.11,West,272,2.3,2.3,56,0.00,OVC,OVC,0.00,WeatherDisplay:10.37,2013-03-23 23:45:00,
2013-03-23 18:50:00,34.7,21.4,30.11,ENE,71,3.5,3.5,58,0.00,OVC,OVC,0.00,WeatherDisplay:10.37,2013-03-23 23:50:00,
2013-03-23 18:56:00,34.3,21.8,30.11,ENE,70,2.3,2.3,60,0.00,OVC,OVC,0.00,WeatherDisplay:10.37,2013-03-23 23:56:00,
2013-03-23 19:01:00,33.9,21.9,30.11,NE,46,3.5,0.0,61,0.00,OVC,OVC,0.00,WeatherDisplay:10.37,2013-03-24 00:01:00,
2013-03-23 19:06:00,33.7,22.1,30.10,NNE,24,2.3,2.3,62,0.00,OVC,OVC,0.00,WeatherDisplay:10.37,2013-03-24 00:06:00,
2013-03-23 19:11:00,33.7,22.1,30.11,NE,34,3.5,3.5,62,0.00,OVC,OVC,0.00,WeatherDisplay:10.37,2013-03-24 00:11:00,
2013-03-23 19:16:00,33.7,22.4,30.11,NNE,28,3.5,3.5,63,0.00,OVC,OVC,0.00,WeatherDisplay:10.37,2013-03-24 00:16:00,
2013-03-23 19:21:00,33.7,22.8,30.11,NE,37,3.5,3.5,64,0.00,OVC,OVC,0.00,WeatherDisplay:10.37,2013-03-24 00:21:00,
2013-03-23 19:27:00,33.4,22.9,30.11,NE,53,3.5,3.5,65,0.00,OVC,OVC,0.00,WeatherDisplay:10.37,2013-03-24 00:27:00,
2013-03-23 19:32:00,33.1,23.3,30.12,NE,34,6.0,6.0,67,0.00,OVC,OVC,0.00,WeatherDisplay:10.37,2013-03-24 00:32:00,
2013-03-23 19:37:00,32.8,23.4,30.11,ENE,73,3.5,3.5,68,0.00,OVC,OVC,0.00,WeatherDisplay:10.37,2013-03-24 00:37:00,
2013-03-23 19:42:00,32.5,23.8,30.11,NNE,25,4.0,4.0,70,0.00,OVC,OVC,0.00,WeatherDisplay:10.37,2013-03-24 00:42:00,
2013-03-23 19:47:00,32.3,23.9,30.11,NE,51,0.0,0.0,71,0.00,OVC,OVC,0.00,WeatherDisplay:10.37,2013-03-24 00:47:00,
2013-03-23 19:53:00,32.2,23.8,30.12,NNE,30,4.0,4.0,71,0.00,OVC,OVC,0.00,WeatherDisplay:10.37,2013-03-24 00:53:00,
2013-03-23 19:58:00,32.1,23.8,30.12,NNE,24,2.3,2.3,71,0.00,CLR,CLR,0.00,WeatherDisplay:10.37,2013-03-24 00:58:00,
2013-03-23 20:03:00,32.1,24.1,30.11,ENE,66,0.0,0.0,72,0.00,CLR,CLR,0.00,WeatherDisplay:10.37,2013-03-24 01:03:00,
2013-03-23 20:08:00,32.2,24.2,30.12,NE,51,3.5,3.5,72,0.00,CLR,CLR,0.00,WeatherDisplay:10.37,2013-03-24 01:08:00,
2013-03-23 20:13:00,32.2,24.2,30.12,North,5,4.0,4.0,72,0.00,CLR,CLR,0.00,WeatherDisplay:10.37,2013-03-24 01:13:00,
2013-03-23 20:18:00,32.2,24.2,30.12,NE,53,0.0,0.0,72,0.00,CLR,CLR,0.00,WeatherDisplay:10.37,2013-03-24 01:18:00,
2013-03-23 20:24:00,32.1,24.4,30.12,NE,53,0.0,0.0,73,0.00,CLR,CLR,0.00,WeatherDisplay:10.37,2013-03-24 01:24:00,
2013-03-23 20:29:00,32.1,24.4,30.12,NE,50,3.5,3.5,73,0.00,CLR,CLR,0.00,WeatherDisplay:10.37,2013-03-24 01:29:00,
2013-03-23 20:34:00,32.1,24.4,30.12,NE,34,3.5,3.5,73,0.00,CLR,CLR,0.00,WeatherDisplay:10.37,2013-03-24 01:34:00,
2013-03-23 20:39:00,32.2,24.5,30.12,NE,39,3.5,3.5,73,0.00,CLR,CLR,0.00,WeatherDisplay:10.37,2013-03-24 01:39:00,
2013-03-23 20:44:00,32.2,24.5,30.13,NE,38,0.0,0.1,73,0.00,CLR,CLR,0.00,WeatherDisplay:10.37,2013-03-24 01:44:00,
2013-03-23 20:49:00,32.1,24.4,30.13,NE,43,2.3,2.3,73,0.00,CLR,CLR,0.00,WeatherDisplay:10.37,2013-03-24 01:49:00,
2013-03-23 20:54:00,32.1,24.7,30.13,NE,43,0.0,0.1,74,0.00,CLR,CLR,0.00,WeatherDisplay:10.37,2013-03-24 01:54:00,
2013-03-23 21:00:00,32.1,24.7,30.13,NE,43,2.3,2.3,74,0.00,CLR,CLR,0.00,WeatherDisplay:10.37,2013-03-24 02:00:00,
2013-03-23 21:05:00,32.0,24.6,30.13,NE,41,2.3,2.3,74,0.00,CLR,CLR,0.00,WeatherDisplay:10.37,2013-03-24 02:05:00,
2013-03-23 21:10:00,32.0,25.0,30.13,NNE,26,3.5,3.5,75,0.00,CLR,CLR,0.00,WeatherDisplay:10.37,2013-03-24 02:10:00,
2013-03-23 21:15:00,31.9,25.2,30.13,NNW,344,3.5,3.5,76,0.00,CLR,CLR,0.00,WeatherDisplay:10.37,2013-03-24 02:15:00,
2013-03-23 21:20:00,31.8,25.1,30.13,North,5,3.5,3.5,76,0.00,CLR,CLR,0.00,WeatherDisplay:10.37,2013-03-24 02:20:00,
2013-03-23 21:26:00,31.7,25.3,30.13,NNE,13,3.5,3.5,77,0.00,CLR,CLR,0.00,WeatherDisplay:10.37,2013-03-24 02:26:00,
2013-03-23 21:32:00,31.6,25.2,30.13,North,355,6.9,6.9,77,0.00,CLR,CLR,0.00,WeatherDisplay:10.37,2013-03-24 02:32:00,
2013-03-23 21:37:00,31.5,25.1,30.13,NNE,20,3.5,3.5,77,0.00,CLR,CLR,0.00,WeatherDisplay:10.37,2013-03-24 02:37:00,
2013-03-23 21:42:00,31.4,25.3,30.13,North,349,4.6,4.6,78,0.00,CLR,CLR,0.00,WeatherDisplay:10.37,2013-03-24 02:42:00,
2013-03-23 21:47:00,31.3,25.2,30.13,NE,46,9.2,9.2,78,0.00,CLR,CLR,0.00,WeatherDisplay:10.37,2013-03-24 02:47:00,
2013-03-23 21:52:00,31.3,24.9,30.13,North,355,5.8,5.8,77,0.00,CLR,CLR,0.00,WeatherDisplay:10.37,2013-03-24 02:52:00,
2013-03-23 21:57:00,31.2,24.8,30.13,NNE,12,5.8,5.8,77,0.00,OVC,OVC,0.00,WeatherDisplay:10.37,2013-03-24 02:57:00,
2013-03-23 22:03:00,31.2,24.5,30.13,NNE,23,10.4,10.4,76,0.00,OVC,OVC,0.00,WeatherDisplay:10.37,2013-03-24 03:03:00,
2013-03-23 22:08:00,31.1,24.4,30.13,NNE,25,6.9,6.9,76,0.00,OVC,OVC,0.00,WeatherDisplay:10.37,2013-03-24 03:08:00,
2013-03-23 22:13:00,31.0,24.0,30.13,NNE,15,10.4,10.4,75,0.00,OVC,OVC,0.00,WeatherDisplay:10.37,2013-03-24 03:13:00,
2013-03-23 22:18:00,30.9,23.9,30.13,NNW,346,5.0,5.0,75,0.00,OVC,OVC,0.00,WeatherDisplay:10.37,2013-03-24 03:18:00,
2013-03-23 22:23:00,30.9,23.9,30.13,NE,40,3.5,3.5,75,0.00,OVC,OVC,0.00,WeatherDisplay:10.37,2013-03-24 03:23:00,
2013-03-23 22:29:00,30.8,24.1,30.12,NNW,344,4.6,4.6,76,0.00,OVC,OVC,0.00,WeatherDisplay:10.37,2013-03-24 03:29:00,
2013-03-23 22:34:00,30.7,24.0,30.12,NNE,28,2.3,2.3,76,0.00,OVC,OVC,0.00,WeatherDisplay:10.37,2013-03-24 03:34:00,
2013-03-23 22:39:00,30.6,23.9,30.12,NNE,23,1.2,0.0,76,0.00,OVC,OVC,0.00,WeatherDisplay:10.37,2013-03-24 03:39:00,
2013-03-23 22:44:00,30.7,24.0,30.12,NNE,27,3.5,3.5,76,0.00,OVC,OVC,0.00,WeatherDisplay:10.37,2013-03-24 03:44:00,
2013-03-23 22:49:00,30.8,23.8,30.12,NNE,28,1.2,1.2,75,0.00,OVC,OVC,0.00,WeatherDisplay:10.37,2013-03-24 03:49:00,
2013-03-23 22:54:00,30.8,23.5,30.12,NNE,30,4.6,4.6,74,0.00,OVC,OVC,0.00,WeatherDisplay:10.37,2013-03-24 03:54:00,
2013-03-23 23:00:00,30.9,23.6,30.11,NNE,30,1.2,1.2,74,0.00,OVC,OVC,0.00,WeatherDisplay:10.37,2013-03-24 04:00:00,
2013-03-23 23:01:00,30.9,23.3,30.11,NNE,30,0.0,0.0,73,0.00,OVC,OVC,0.00,WeatherDisplay:10.37,2013-03-24 04:01:00,
2013-03-23 23:06:00,31.0,23.4,30.11,NNE,30,0.0,0.0,73,0.00,OVC,OVC,0.00,WeatherDisplay:10.37,2013-03-24 04:06:00,
2013-03-23 23:12:00,31.1,23.1,30.10,NNE,30,0.0,0.0,72,0.00,OVC,OVC,0.00,WeatherDisplay:10.37,2013-03-24 04:12:00,
2013-03-23 23:17:00,31.2,23.2,30.10,NNE,30,0.0,0.0,72,0.00,OVC,OVC,0.00,WeatherDisplay:10.37,2013-03-24 04:17:00,
2013-03-23 23:22:00,31.3,23.0,30.10,NNE,30,2.3,2.3,71,0.00,OVC,OVC,0.00,WeatherDisplay:10.37,2013-03-24 04:22:00,
2013-03-23 23:27:00,31.4,22.7,30.10,NE,37,1.2,1.2,70,0.00,OVC,OVC,0.00,WeatherDisplay:10.37,2013-03-24 04:27:00,
2013-03-23 23:32:00,31.5,22.5,30.10,NE,36,3.5,3.5,69,0.00,OVC,OVC,0.00,WeatherDisplay:10.37,2013-03-24 04:32:00,
2013-03-23 23:37:00,31.6,22.2,30.10,NNE,30,5.0,5.0,68,0.00,OVC,OVC,0.00,WeatherDisplay:10.37,2013-03-24 04:37:00,
2013-03-23 23:42:00,31.8,21.4,30.09,ENE,68,8.1,8.1,65,0.00,OVC,OVC,0.00,WeatherDisplay:10.37,2013-03-24 04:42:00,
2013-03-23 23:47:00,31.9,21.1,30.09,NE,51,5.8,5.8,64,0.00,OVC,OVC,0.00,WeatherDisplay:10.37,2013-03-24 04:47:00,
2013-03-23 23:52:00,32.0,20.8,30.09,NNE,24,3.5,3.5,63,0.00,OVC,OVC,0.00,WeatherDisplay:10.37,2013-03-24 04:52:00,
2013-03-23 23:58:00,32.0,20.8,30.08,NNE,21,5.0,5.0,63,0.00,OVC,OVC,0.00,WeatherDisplay:10.37,2013-03-24 04:58:00,